Location: Carr Mill
(33.2054°N, 85.9439°W)
Time: 01:39:42
(UTC+00:00)

STARLINK-2732 - Pass Details

Date: 28 October 2021
Orbit: 545 x 549 km, 53.1° (Epoch: 07 December)

Event Time Altitude Azimuth Distance (km) Brightness Sun altitude
Exits shadow 09:23:44 20° 84° (E) 1,298 6.1 -33.0°
Drops below altitude 10° 09:25:24 10° 67° (ENE) 1,813 7.0 -32.6°
Sets 09:27:51 0° 56° (NE) 2,709 8.0 -32.1°
